Location: Caltech
(34.1382°N, 118.1253°W)
Time: 16:16:33
(UTC-07:00)

Iridium 94 - Visible Passes

Search period start: 05 July 2015 00:00
Search period end: 15 July 2015 00:00
Orbit: 776 x 778 km, 86.4° (Epoch: 05 July)

Date Brightness Start Highest point End Pass type
(mag) Time Alt. Az. Time Alt. Az. Time Alt. Az.
10 Jul 8.7 04:49:24 10° NE 04:51:15 12° ENE 04:53:26 10° E visible
12 Jul 7.4 05:20:41 10° NNE 05:25:24 35° E 05:30:10 10° SSE visible
13 Jul 8.3 04:48:08 10° NE 04:51:36 18° ENE 04:55:16 10° ESE visible
